TimeCDT,TemperatureF,Dew PointF,Humidity,Sea Level PressureIn,VisibilityMPH,Wind Direction,Wind SpeedMPH,Gust SpeedMPH,PrecipitationIn,Events,Conditions,WindDirDegrees,DateUTC
12:51 AM,78.1,48.9,36,29.88,10.0,SSW,6.9,-,N/A,,Clear,200,2013-07-14 05:51:00
1:51 AM,79.0,48.9,35,29.88,10.0,SSW,5.8,-,N/A,,Mostly Cloudy,210,2013-07-14 06:51:00
2:51 AM,79.0,48.9,35,29.87,10.0,South,3.5,-,N/A,,Clear,170,2013-07-14 07:51:00
3:51 AM,77.0,50.0,39,29.86,10.0,SW,3.5,-,N/A,,Clear,220,2013-07-14 08:51:00
4:51 AM,73.0,50.0,44,29.86,10.0,SSW,5.8,-,N/A,,Clear,210,2013-07-14 09:51:00
5:51 AM,73.9,51.1,45,29.85,10.0,SW,3.5,-,N/A,,Clear,220,2013-07-14 10:51:00
6:51 AM,71.1,51.1,49,29.86,10.0,SSW,4.6,-,N/A,,Clear,210,2013-07-14 11:51:00
7:51 AM,75.0,52.0,44,29.86,10.0,WSW,3.5,-,N/A,,Clear,240,2013-07-14 12:51:00
8:51 AM,82.9,55.0,38,29.86,10.0,WSW,9.2,-,N/A,,Clear,250,2013-07-14 13:51:00
9:51 AM,89.1,55.9,32,29.87,10.0,SW,11.5,-,N/A,,Clear,230,2013-07-14 14:51:00
10:51 AM,95.0,54.0,25,29.86,10.0,WSW,10.4,-,N/A,,Clear,240,2013-07-14 15:51:00
11:51 AM,97.0,51.1,21,29.85,10.0,West,6.9,-,N/A,,Clear,270,2013-07-14 16:51:00
12:51 PM,99.0,50.0,19,29.82,10.0,Calm,Calm,-,N/A,,Clear,0,2013-07-14 17:51:00
1:51 PM,100.0,51.1,19,29.79,10.0,SE,4.6,-,N/A,,Mostly Cloudy,140,2013-07-14 18:51:00
2:51 PM,100.0,51.1,19,29.76,10.0,SE,10.4,-,N/A,,Partly Cloudy,140,2013-07-14 19:51:00
3:51 PM,100.0,51.1,19,29.74,10.0,Variable,4.6,-,N/A,,Partly Cloudy,0,2013-07-14 20:51:00
4:51 PM,100.9,50.0,18,29.73,10.0,NNW,4.6,-,N/A,,Clear,340,2013-07-14 21:51:00
5:26 PM,93.2,59.0,32,29.82,10.0,ESE,24.2,31.1,N/A,,Mostly Cloudy,110,2013-07-14 22:26:00
5:51 PM,93.0,60.1,33,29.75,10.0,ESE,21.9,29.9,N/A,,Partly Cloudy,110,2013-07-14 22:51:00
6:51 PM,91.9,60.1,34,29.74,10.0,ESE,18.4,26.5,N/A,,Partly Cloudy,120,2013-07-14 23:51:00
7:51 PM,90.0,60.1,37,29.75,10.0,East,16.1,-,N/A,,Mostly Cloudy,90,2013-07-15 00:51:00
8:51 PM,84.0,62.1,47,29.79,10.0,ENE,17.3,27.6,N/A,,Scattered Clouds,60,2013-07-15 01:51:00
9:51 PM,78.1,62.1,58,29.84,10.0,ENE,24.2,31.1,N/A,,Clear,60,2013-07-15 02:51:00
10:51 PM,75.0,62.1,64,29.86,10.0,ENE,23.0,35.7,N/A,,Clear,70,2013-07-15 03:51:00
11:51 PM,72.0,63.0,73,29.85,10.0,East,23.0,-,N/A,,Partly Cloudy,80,2013-07-15 04:51:00